RH
70 70 70 70 68 68 68 69 70 69 66 65 63 63 64 63 63 63 64 64 63 62 63 64 62 63 73 89 83 62 54 61 71 80 89 95 96 91 89 81 71 89 80 76 74 81 72
71 71 71 71 71 69 68 70 70 70 68 65 64 64 65 65 66 65 63 62 63 63 65 62 60 65 85 94 61 63 67 70 72 84 84 94 93 82 84 75 82 80 80 75 74 75 75
72 72 72 72 72 71 71 71 71 70 68 66 65 65 63 64 66 65 61 62 63 64 65 63 59 68 91 83 58 61 62 68 72 81 88 85 84 80 80 78 65 71 92 80 79 76 78
72 72 72 73 73 73 73 73 72 71 68 66 66 61 62 64 66 64 62 62 64 65 63 57 57 79 89 60 62 54 59 68 77 74 85 85 87 86 89 79 81 97 90 94 87 86 77
72 72 72 72 72 73 73 73 73 72 69 65 65 63 62 63 64 63 62 62 61 56 52 46 68 72 80 50 62 58 66 73 73 84 85 77 88 88 85 94 94 99 98 84 96 75 84
71 71 71 71 71 73 74 74 73 72 71 65 60 62 63 63 63 63 65 63 58 58 55 45 52 78 64 69 67 64 64 74 83 89 86 84 87 97 95 96 98 99 99 78 87 77 92
72 71 70 71 71 72 74 75 74 74 73 71 58 64 62 60 59 64 76 74 60 64 74 76 73 80 75 65 67 74 75 71 81 86 85 86 95 98 91 87 89 98 98 70 83 71 90
72 70 70 71 71 71 72 75 75 74 74 74 61 61 63 58 57 63 70 73 78 66 86 78 76 78 71 78 89 83 76 92 96 96 74 87 96 87 83 91 98 98 92 94 94 83 81
73 72 71 70 71 71 72 74 75 75 75 72 71 60 64 62 56 65 71 76 76 79 91 78 84 86 83 80 87 95 87 84 99 97 89 85 80 82 85 90 95 93 96 91 91 86 88
73 73 72 71 72 71 71 72 73 75 77 72 71 58 63 60 59 70 69 70 74 73 90 69 83 80 86 85 94 80 84 84 95 88 79 82 86 86 86 86 81 97 79 80 85 89 99
73 73 74 72 72 72 72 71 71 73 78 71 69 51 63 63 71 70 72 68 71 60 67 65 78 71 77 90 87 88 82 92 87 76 83 84 88 94 92 79 71 87 74 82 90 98 97
72 74 74 75 75 74 73 72 71 71 77 70 70 48 49 67 71 70 69 66 68 81 50 75 76 71 72 79 83 87 92 84 88 91 90 89 84 85 86 76 78 78 80 85 90 93 98
70 72 74 75 75 76 76 73 72 70 73 73 68 48 47 51 66 70 70 77 94 85 64 71 74 70 81 87 85 86 87 93 95 88 93 78 78 76 78 92 82 80 87 99 98 99 97
72 71 72 74 75 76 76 76 73 72 73 78 71 63 53 43 68 75 73 92 84 73 81 65 65 71 86 86 86 90 89 97 93 95 98 94 93 88 72 82 88 89 87 85 92 97 96
73 73 74 75 75 76 77 78 76 74 79 69 68 71 64 57 68 71 90 97 90 84 76 69 72 82 86 85 93 87 97 98 96 96 85 93 84 70 65 57 73 84 89 68 79 80 84
75 74 76 74 75 77 77 78 78 76 77 61 82 70 60 63 70 80 95 83 71 55 55 63 83 82 89 92 91 91 92 87 94 90 89 88 87 62 58 49 54 75 69 72 69 83 76
81 83 81 78 77 81 82 78 78 78 73 52 64 64 62 67 74 89 97 88 58 48 50 68 78 90 89 87 94 99 88 84 83 81 88 92 81 71 54 54 76 62 64 66 62 76 82
87 87 84 83 81 82 82 80 78 78 74 80 79 70 68 71 88 97 90 63 49 52 51 55 61 77 85 89 95 99 96 89 70 84 93 90 86 81 64 54 56 57 54 63 69 62 76
87 86 87 82 84 84 84 81 80 79 73 96 95 85 76 78 93 94 63 55 56 55 55 56 58 62 66 69 86 92 90 69 73 91 94 87 87 88 79 64 61 57 52 53 55 58 64
87 86 86 84 85 86 86 83 81 80 76 89 95 89 83 78 87 78 59 53 55 57 56 53 55 53 60 71 70 76 79 70 63 77 70 82 90 83 76 68 63 63 52 51 51 67 68
89 88 87 86 86 85 86 86 82 81 78 84 97 89 86 88 89 93 85 84 74 72 59 56 58 59 73 88 86 78 72 72 68 67 85 90 99 91 88 83 73 60 56 50 53 54 57
93 91 89 88 88 88 88 87 86 82 72 73 89 91 97 96 95 88 74 75 73 84 68 79 74 86 84 95 94 92 84 78 84 75 93 93 98 94 91 73 80 82 66 61 53 52 47
95 94 93 91 90 90 91 91 88 83 58 72 78 72 89 81 96 86 80 68 70 65 67 66 72 91 93 87 83 76 72 70 72 88 96 98 99 99 93 91 87 92 74 68 69 61 52
95 95 95 94 93 92 92 92 91 88 69 58 73 76 93 88 95 89 90 74 66 66 67 65 85 89 78 62 67 75 87 73 80 75 75 98 98 98 98 93 97 63 66 69 63 55 57
91 94 94 95 94 94 94 94 92 91 83 75 77 67 94 94 92 89 95 87 72 67 74 61 68 77 84 89 93 97 97 97 95 90 88 78 99 99 100 97 84 72 66 68 74 68 68
77 80 84 89 93 96 95 94 94 93 91 82 82 78 90 96 88 75 89 88 87 90 84 78 65 61 68 92 97 91 93 92 95 96 96 91 96 99 97 99 98 73 73 67 67 87 62
69 70 72 74 77 83 87 89 95 95 95 96 92 81 93 98 85 79 88 85 84 91 91 93 86 78 73 98 99 95 81 90 90 92 96 96 97 95 92 97 88 74 70 74 83 71 61
68 69 69 69 69 70 71 76 81 86 94 99 94 79 93 99 87 77 70 83 89 92 87 89 80 84 96 94 93 83 94 90 91 87 94 91 96 98 96 98 92 76 83 80 77 74 70
65 65 65 65 65 66 67 67 69 72 79 86 98 87 91 99 96 76 67 62 66 73 86 94 88 87 82 92 97 96 98 99 91 80 92 88 80 83 80 75 61 76 84 87 84 72 73
Wind_Speed
16 17 18 18 17 17 15 13 12 10 10 9 8 7 6 5 5 5 5 5 5 5 6 6 4 4 4 2 5 2 7 9 2 0 4 5 7 5 4 5 12 20 14 12 14 4 3
16 17 17 18 18 18 16 14 12 10 10 9 8 7 6 5 5 5 4 5 6 6 7 6 3 3 3 3 1 3 6 6 5 2 3 5 7 7 4 6 7 7 13 12 13 5 2
16 17 19 19 19 19 18 16 13 11 9 9 8 7 7 6 6 6 5 5 5 7 7 5 2 1 1 8 2 5 6 4 4 3 3 4 5 6 4 4 11 13 11 9 17 5 2
16 17 18 19 19 19 19 17 15 12 10 10 8 7 6 5 6 7 7 4 5 7 5 2 2 1 5 1 1 2 5 5 4 2 3 8 4 4 3 2 1 7 7 13 13 11 5
16 17 17 18 19 19 19 19 17 13 10 10 9 7 6 5 5 8 6 4 4 4 3 2 3 3 6 2 1 6 3 5 3 2 6 4 4 4 1 1 2 2 4 13 12 5 4
15 16 16 17 18 18 19 20 19 15 11 9 10 8 5 3 6 5 4 3 3 5 5 1 2 2 3 5 3 4 4 2 3 6 5 2 2 1 1 3 4 4 8 15 9 12 6
15 15 16 17 18 19 19 19 20 18 13 9 10 8 5 4 2 3 3 3 5 4 5 4 2 3 4 6 3 3 4 2 3 1 3 3 3 5 8 8 6 13 12 22 8 13 10
15 16 16 17 17 18 19 20 20 19 15 10 8 4 6 4 1 3 3 2 2 3 7 7 4 4 5 2 4 7 3 2 3 5 4 2 2 5 2 4 12 13 10 13 14 11 10
14 15 15 16 16 17 18 19 20 21 18 9 7 5 3 3 1 4 2 2 1 1 1 5 4 3 3 2 3 4 4 3 4 5 6 3 3 5 3 0 8 3 5 5 12 10 13
13 14 15 15 16 17 17 18 19 20 20 11 4 5 4 1 1 1 0 1 1 2 5 5 2 4 2 3 2 4 3 2 3 7 6 1 0 4 2 1 3 5 2 13 14 5 4
13 13 14 14 16 17 18 18 19 20 19 12 4 5 0 4 2 1 2 3 2 4 5 3 5 4 3 3 3 1 3 3 3 5 4 6 5 3 2 3 2 4 4 11 10 8 4
13 14 14 14 15 15 17 18 19 19 19 13 4 5 1 2 2 1 1 5 2 5 5 3 3 4 3 2 1 2 3 2 2 1 3 4 3 3 2 2 6 9 16 11 7 4 2
13 13 13 14 14 15 16 16 17 18 18 15 5 3 2 0 2 3 2 3 2 4 3 5 2 3 2 4 4 5 4 4 2 4 4 2 2 3 1 8 2 10 6 4 3 1 3
13 13 14 13 13 13 14 15 16 18 19 14 3 4 1 1 2 4 2 4 1 3 4 2 2 2 2 4 1 3 5 1 1 3 3 2 5 6 5 1 3 6 3 5 7 7 5
13 14 13 14 14 14 15 16 17 17 18 9 4 2 1 1 3 3 3 1 3 3 1 2 3 3 3 2 2 4 3 6 4 2 6 3 3 1 1 2 7 5 3 2 6 2 5
14 13 14 14 14 14 16 17 17 17 16 5 1 1 2 2 3 3 4 5 2 1 1 1 4 1 3 3 4 3 1 4 4 5 0 1 1 4 3 0 4 5 3 1 1 6 6
14 14 14 13 13 12 16 16 17 18 18 0 2 2 1 2 2 4 3 4 2 4 1 2 1 1 3 2 1 3 4 3 5 3 2 1 1 2 4 6 4 0 4 2 0 3 4
15 15 14 14 12 12 15 14 15 17 17 6 2 2 0 2 2 1 2 0 3 2 2 0 1 1 2 1 3 3 5 5 2 1 2 0 1 3 8 3 6 6 6 5 3 3 1
15 15 15 14 13 14 15 13 12 14 13 2 1 2 2 1 2 2 2 2 2 3 4 2 2 2 2 3 2 4 4 2 1 1 2 2 4 0 5 2 1 5 5 5 3 3 4
17 16 16 15 14 14 13 12 10 11 13 3 2 2 3 2 1 3 2 3 2 2 3 4 3 1 1 3 4 3 3 2 1 1 1 1 3 5 7 5 3 6 6 6 6 5 4
18 18 18 17 16 15 13 11 8 8 12 3 2 4 4 3 4 2 2 2 1 3 2 2 4 4 5 4 3 4 2 2 2 5 1 1 4 3 6 7 5 4 7 10 9 6 9
19 19 18 17 16 15 14 11 7 4 6 3 2 2 3 2 1 3 2 6 8 4 6 4 4 5 6 6 4 3 2 2 1 2 0 3 5 3 6 5 6 6 6 6 8 5 11
18 18 19 19 17 16 14 12 10 7 4 1 0 2 4 2 0 4 6 7 7 5 3 3 7 6 5 7 7 4 4 3 3 0 1 2 2 2 6 2 4 6 13 14 5 5 7
16 17 18 19 18 17 16 14 13 11 9 3 3 3 4 6 4 6 3 7 8 6 5 2 3 5 2 6 5 3 4 7 7 7 4 2 2 3 3 1 5 4 1 2 14 12 8
20 15 14 17 18 18 17 16 16 16 17 3 4 4 4 5 3 4 4 5 0 2 5 5 5 2 7 4 2 3 2 3 5 6 9 6 2 3 3 4 7 5 3 5 8 7 0
15 15 13 18 16 14 17 18 19 18 21 4 4 4 3 3 8 7 4 5 4 3 3 1 2 1 1 2 3 5 4 4 3 2 3 6 2 1 3 4 6 3 1 1 2 5 1
15 15 15 16 15 14 15 17 14 19 20 7 4 8 4 3 6 6 5 6 6 2 2 1 4 1 2 2 3 4 5 1 4 7 6 4 3 9 8 5 9 7 4 0 5 4 2
16 16 16 16 16 16 17 17 15 20 15 12 5 12 9 6 5 9 8 7 3 3 5 3 4 2 3 3 4 4 4 4 2 3 7 8 8 5 4 1 9 5 4 6 5 1 2
16 16 15 15 15 16 16 16 15 17 18 20 6 6 3 3 3 3 7 7 10 13 8 3 3 5 6 3 2 0 3 1 1 4 2 3 8 7 10 9 3 5 4 3 3 1 1
Wind_Direction
32 26 23 21 19 15 14 11 7 2 358 357 357 358 347 334 322 319 310 297 292 298 299 306 339 18 54 347 252 279 326 318 338 210 204 221 198 187 215 274 202 265 293 229 232 285 299
26 25 22 21 19 17 13 12 8 2 358 355 353 348 337 326 303 292 283 289 295 302 312 326 353 72 72 280 302 336 318 302 245 216 235 209 218 202 261 236 192 314 300 231 221 282 267
20 20 18 18 17 15 14 10 5 360 357 356 352 346 337 316 294 284 275 285 296 309 332 340 18 100 189 237 58 333 316 260 220 210 260 243 212 197 178 259 220 276 302 252 183 252 253
18 19 18 14 14 12 12 10 4 358 354 356 349 342 334 316 292 280 285 290 298 308 319 1 104 117 251 291 175 288 293 289 172 223 220 259 206 210 255 308 106 233 276 198 183 215 161
18 16 14 12 11 10 10 9 7 358 352 357 347 335 326 313 293 295 287 289 345 26 26 3 117 149 266 303 301 294 250 280 282 298 251 278 166 205 153 140 17 212 241 199 179 215 66
14 13 11 9 7 9 8 7 5 2 350 349 353 333 316 299 300 296 286 318 8 17 349 14 91 70 270 265 271 288 273 356 78 328 115 136 35 109 90 149 216 200 213 199 168 192 175
7 10 7 6 5 4 5 5 4 2 353 338 359 338 315 311 304 311 29 12 14 324 25 198 235 237 288 294 268 234 340 19 353 269 86 138 82 224 209 169 272 287 264 177 147 162 179
2 3 7 4 4 3 1 2 1 2 357 336 340 11 316 321 19 60 65 79 145 207 307 232 265 262 268 13 325 341 344 42 310 86 91 316 195 238 156 262 253 224 137 119 95 102 109
358 1 3 3 2 4 1 360 359 0 358 341 320 338 256 270 23 63 99 73 144 189 255 283 218 243 239 125 342 269 293 84 37 105 203 227 252 200 159 278 97 85 55 89 113 122 80
355 357 359 2 1 1 1 0 0 1 1 351 323 336 121 102 9 184 285 120 90 90 49 275 293 292 181 132 288 222 223 160 175 142 205 239 219 218 220 339 126 69 56 91 110 101 84
346 350 354 358 360 359 359 359 358 1 359 351 313 338 23 94 171 191 149 114 65 55 28 241 289 139 209 92 277 243 192 206 127 156 110 264 214 215 157 236 331 160 144 100 94 77 114
338 343 348 353 356 358 357 356 356 356 0 356 299 10 286 66 50 343 99 88 57 38 264 321 276 356 16 46 1 288 194 180 335 307 142 189 247 251 334 351 126 137 102 74 67 67 18
330 334 340 344 348 354 353 352 350 352 354 352 307 178 316 333 173 143 130 65 4 150 22 276 212 32 123 306 29 42 17 25 91 63 357 38 193 298 200 85 139 137 105 82 121 122 191
321 326 330 335 338 344 343 343 347 348 349 345 310 174 308 214 165 125 77 61 264 180 207 344 289 278 102 357 327 13 111 90 322 155 97 143 315 191 171 164 165 190 185 164 163 173 165
312 318 320 324 329 336 335 338 343 347 349 357 64 6 66 262 150 76 77 80 236 293 353 204 314 37 321 85 148 349 150 176 223 200 157 147 285 316 173 197 157 214 286 319 103 10 105
302 307 312 316 321 332 332 335 341 345 348 8 60 17 41 132 133 71 78 255 148 89 317 14 242 79 227 297 359 59 302 180 182 213 278 194 124 219 272 119 210 160 221 94 352 159 193
296 297 294 301 311 330 323 331 339 338 343 342 86 76 282 127 66 54 188 237 264 122 90 338 292 250 263 284 148 313 260 261 161 158 154 214 153 275 122 212 193 112 302 309 129 118 166
284 284 287 292 307 309 309 325 336 339 342 32 2 328 136 135 100 120 223 242 297 141 88 79 36 83 223 234 286 271 246 217 145 178 161 190 16 239 215 234 194 170 209 187 125 257 176
272 281 285 288 292 295 299 315 330 337 360 335 320 252 23 13 239 267 276 248 256 165 151 179 130 173 261 267 265 213 257 8 126 156 193 157 236 58 358 303 119 212 189 189 134 108 222
264 269 275 278 278 284 290 305 318 329 338 94 67 346 330 53 344 174 198 233 231 265 137 158 116 240 205 246 222 294 276 287 234 240 209 69 270 220 196 209 154 195 186 188 174 183 177
255 259 264 270 271 275 282 290 298 314 332 108 61 257 189 261 289 155 138 196 143 257 247 213 120 225 149 293 262 237 247 295 298 332 28 188 240 227 239 261 293 260 196 183 199 196 201
251 254 257 262 266 271 270 275 273 272 340 101 152 116 351 254 177 125 210 234 190 244 153 245 167 174 163 184 230 261 354 225 256 346 252 334 284 342 297 285 233 260 269 259 229 211 250
255 251 249 253 257 260 255 256 252 210 101 183 233 5 106 256 312 91 219 212 215 162 257 185 170 136 203 216 220 221 227 298 296 220 219 187 234 169 259 336 347 289 223 222 220 210 174
275 262 256 253 252 254 252 246 241 213 184 160 189 120 97 261 173 207 225 197 200 213 183 213 173 143 199 110 121 158 248 239 224 229 221 244 227 195 247 1 227 241 334 192 217 245 232
18 354 291 268 260 257 253 246 239 224 195 163 157 149 172 246 192 265 221 211 112 322 195 178 201 214 131 100 122 292 221 248 224 214 204 215 297 274 223 222 312 299 192 174 171 257 359
0 340 338 16 7 289 258 251 247 233 211 159 178 142 161 143 230 198 168 184 191 193 348 228 59 91 164 145 115 204 233 199 223 134 191 182 231 251 332 243 228 276 342 8 137 294 69
345 338 330 346 343 325 359 5 285 248 232 170 196 161 126 208 244 152 186 183 141 102 141 235 171 100 339 124 163 193 240 181 207 170 166 163 184 217 228 261 289 246 214 299 110 225 339
333 335 331 333 335 323 331 333 320 1 309 201 204 189 159 192 239 187 176 147 126 151 158 183 83 310 47 164 167 221 207 217 137 193 178 173 162 193 169 163 273 149 77 163 215 278 289
319 320 320 318 322 320 325 322 315 337 315 342 247 191 136 154 269 220 218 195 192 178 148 180 203 159 164 117 242 159 241 77 168 254 320 246 192 178 194 210 228 209 198 235 163 177 269